Wind_Speed
5 5 5 5 4 2 1 1 1 2 2 3 4 4 4 5 5 4 4 3 2 2 2 2 2 1 2 3 3 2 2 2 2 2 2 1 2 2 2 2 2 2 1
6 5 5 5 4 2 1 1 2 2 3 4 5 4 4 4 4 4 3 2 2 1 1 1 1 0 1 2 1 1 1 1 2 1 1 1 1 1 1 2 2 2 1
6 6 6 6 5 3 2 2 2 3 4 5 4 4 3 3 3 3 3 2 2 2 2 2 1 1 1 0 1 1 1 1 0 1 1 1 0 1 1 2 2 2 1
6 6 6 6 5 3 2 2 3 3 3 3 3 3 2 2 2 2 2 2 1 1 1 1 1 1 1 1 1 1 1 1 0 0 1 0 1 1 1 2 2 2 2
7 6 6 7 5 4 2 2 2 3 3 2 3 3 2 1 1 1 1 2 1 1 1 1 1 1 1 2 2 1 1 1 1 1 1 1 1 1 1 2 2 1 0
7 7 7 7 6 5 4 3 3 3 3 3 3 3 2 1 1 1 1 2 1 1 0 1 0 0 1 2 2 2 2 2 2 2 1 0 1 1 1 1 1 1 0
8 8 7 7 6 5 5 4 4 3 4 3 3 3 2 2 1 1 0 1 1 1 0 0 0 1 1 2 2 2 2 3 2 1 0 0 1 1 1 1 1 1 1
9 8 8 7 7 7 6 5 4 4 3 3 3 3 2 2 2 2 2 1 1 1 1 2 1 1 1 1 1 2 2 3 2 1 0 1 1 0 1 1 1 1 1
10 9 8 8 8 7 6 5 4 4 4 3 3 3 2 2 2 2 2 1 1 1 1 1 2 2 1 1 1 1 3 3 2 2 1 1 1 2 2 1 2 2 2
10 9 8 8 7 7 6 6 6 5 4 3 3 3 3 3 2 2 2 1 0 1 1 2 2 1 2 2 2 3 3 3 3 3 2 2 2 3 3 3 3 3 4
10 9 9 8 7 7 7 7 7 6 5 4 3 3 3 3 2 2 2 1 0 1 2 2 2 3 2 2 2 3 3 3 3 4 3 3 3 4 4 4 5 5 5
10 10 9 8 8 7 8 7 7 6 5 4 4 3 3 2 2 1 1 1 1 1 1 2 2 2 3 3 2 2 3 3 3 4 3 3 4 4 4 5 5 6 6
11 11 10 9 8 8 7 7 7 6 5 4 4 3 2 2 2 2 1 1 1 1 1 1 2 1 1 1 1 1 1 2 2 3 4 4 3 4 4 5 6 7 6
12 11 11 10 9 8 8 8 8 7 7 6 6 5 3 3 3 3 3 2 2 2 2 2 2 2 2 1 0 0 0 1 1 2 3 3 3 3 4 5 6 6 7
13 12 11 11 10 9 9 9 9 8 8 7 6 6 5 5 4 4 3 3 3 3 3 3 3 2 2 1 1 1 1 1 2 3 3 3 3 4 5 6 6 6 7
12 12 11 12 11 10 10 9 9 9 8 7 6 6 6 5 5 5 5 4 4 4 4 3 3 2 1 1 1 1 2 2 2 3 4 4 5 5 6 6 6 6 6
11 11 11 11 11 10 10 9 9 8 8 7 6 6 5 5 6 5 5 4 4 4 4 3 2 2 2 2 2 2 2 3 3 4 4 5 6 6 6 6 6 6 6
11 11 10 10 10 9 9 8 8 7 7 7 7 7 6 6 6 6 6 5 5 4 4 3 3 3 3 3 3 2 3 3 4 5 5 5 5 6 5 5 6 6 6
10 10 9 9 9 8 8 8 8 7 7 7 7 7 6 6 6 6 6 6 6 5 5 4 4 3 3 3 4 4 4 4 4 5 5 5 5 5 5 6 6 7 7
9 9 8 8 7 7 7 7 7 7 8 8 8 7 7 6 6 6 6 6 5 5 5 5 4 4 3 4 4 4 5 5 5 5 5 5 5 5 5 6 6 7 7
9 8 7 7 6 6 6 6 6 7 7 7 7 7 7 6 6 6 6 6 5 5 5 5 4 4 4 5 5 5 5 5 6 6 6 5 5 6 6 7 7 7 7
8 8 7 6 5 5 5 6 6 7 7 7 7 7 7 7 7 7 7 6 6 6 5 5 5 4 5 6 6 5 6 6 6 7 7 7 7 7 8 8 9 8 8
8 7 7 6 6 6 6 6 6 7 7 8 8 9 8 8 8 7 8 8 8 7 6 6 6 5 6 6 7 7 7 7 7 7 8 8 8 8 8 9 9 9 9
7 7 6 7 6 6 6 6 6 6 7 8 9 9 9 8 8 9 9 9 9 8 8 7 7 7 7 7 8 8 8 8 8 8 8 9 9 9 9 9 10 10 10
6 6 6 6 6 5 5 6 6 7 8 8 9 9 10 10 9 9 10 9 10 10 9 8 8 8 8 8 8 9 9 9 8 8 8 9 9 10 10 10 10 11 11
6 6 7 7 7 6 6 6 7 7 8 8 9 10 10 11 11 11 10 10 10 10 10 9 9 9 9 9 9 9 9 9 9 9 9 9 10 11 11 11 11 12 12
Wind_Direction
43 42 34 26 16 6 18 24 69 107 143 148 159 166 168 159 154 155 156 158 168 170 177 175 187 154 103 124 134 132 146 158 163 125 115 128 159 163 169 162 176 187 203
41 35 30 23 25 28 60 103 112 121 128 132 141 154 160 163 165 158 162 175 176 177 204 225 246 27 114 122 138 140 158 169 171 157 100 87 140 179 179 170 174 190 213
40 36 28 28 35 49 81 114 116 130 124 131 140 146 154 162 168 171 178 198 230 242 235 245 263 307 223 231 177 152 171 196 167 73 88 59 328 202 200 198 200 204 202
47 42 33 35 40 56 96 118 129 132 127 128 136 143 154 155 162 175 195 227 257 241 209 239 236 273 269 259 238 179 175 175 317 74 50 339 232 225 194 217 234 237 218
46 44 39 41 42 47 64 94 127 135 132 131 137 144 153 148 172 178 220 244 254 197 185 176 178 268 270 252 240 241 218 208 293 277 290 284 207 191 206 226 234 251 319
50 46 44 45 48 57 70 86 106 128 138 132 133 145 151 149 165 175 234 264 256 162 211 191 169 295 271 266 250 256 234 233 262 266 292 285 148 160 186 197 182 165 61
50 51 51 51 52 58 73 83 94 115 129 129 129 148 158 161 170 178 183 250 173 151 190 240 235 245 265 263 253 264 237 245 256 249 300 84 115 129 186 184 181 188 264
50 53 57 58 57 63 70 72 83 101 117 129 128 141 152 161 158 169 163 138 138 241 293 309 291 232 263 261 274 274 246 228 221 230 216 137 136 252 248 217 205 257 286
50 52 55 58 59 60 63 59 71 96 99 115 125 142 143 152 164 171 174 150 193 224 252 285 284 257 250 267 273 250 250 246 239 242 213 221 248 281 271 254 265 265 276
51 51 53 54 57 60 60 61 70 79 85 100 116 129 124 126 147 153 142 152 173 231 260 264 272 283 262 265 255 253 279 272 246 249 241 247 263 279 276 277 275 276 278
52 50 51 55 59 64 66 68 75 78 81 94 108 114 108 108 100 102 129 138 156 281 292 291 283 267 260 283 270 266 270 264 257 252 250 254 265 276 285 285 277 275 278
54 51 52 60 62 63 67 70 74 77 76 81 85 94 98 94 82 76 82 69 48 350 308 299 286 272 269 272 292 279 260 258 256 255 257 267 270 266 281 285 283 282 282
50 49 52 62 60 60 64 67 73 76 65 64 72 73 78 54 37 37 45 41 30 357 337 311 306 310 338 301 289 304 253 252 255 262 261 265 263 267 282 285 286 287 283
50 49 51 59 59 63 65 69 69 67 59 57 63 63 60 44 40 47 56 47 27 28 41 27 23 25 27 34 12 7 260 283 270 284 273 269 265 274 289 297 291 287 286
51 53 55 59 62 70 72 69 69 62 55 57 63 60 56 52 56 58 45 34 41 42 34 22 22 23 3 358 360 309 278 297 309 300 286 274 276 287 297 301 298 298 290
49 52 57 60 64 75 75 69 65 62 58 56 57 57 55 56 55 45 39 36 39 39 31 25 22 12 347 337 318 300 295 306 300 291 283 274 280 288 293 293 293 296 293
47 50 53 58 65 71 71 69 65 57 53 53 53 52 50 49 49 47 44 38 32 29 20 12 7 354 345 340 326 315 319 316 310 302 296 282 284 286 286 290 291 292 292
43 46 48 57 63 65 65 63 61 56 53 52 50 45 41 42 40 39 37 35 33 27 17 6 355 351 353 352 348 342 334 313 311 316 315 298 290 281 284 290 294 293 295
37 40 47 54 58 58 57 55 52 46 44 44 39 33 31 30 29 34 27 28 26 20 11 3 358 358 351 344 340 338 331 325 316 316 317 307 301 294 291 291 296 299 297
31 35 43 47 48 48 46 41 37 37 36 33 29 24 20 13 22 28 26 23 17 8 1 359 357 347 341 331 324 322 325 322 313 309 310 304 305 306 308 300 300 303 302
25 27 32 38 39 37 35 30 26 25 25 23 20 22 18 17 17 13 13 12 4 355 350 349 344 337 329 324 318 315 316 315 312 314 313 308 309 310 314 315 310 307 303
26 24 22 24 25 20 16 15 14 15 13 11 12 11 13 10 2 3 9 2 352 344 335 328 325 320 316 317 317 314 311 310 311 307 308 305 310 310 309 310 310 308 307
21 23 19 17 15 11 5 3 6 10 7 4 4 5 5 2 359 358 357 354 351 341 332 321 314 311 311 313 313 309 306 304 307 303 304 304 305 304 303 303 303 302 304
10 15 15 12 10 6 2 358 358 0 357 356 358 1 359 356 352 348 345 342 340 336 329 321 317 310 303 305 309 309 307 305 305 302 305 305 305 300 298 302 306 305 306
359 1 1 2 3 3 0 355 355 353 348 346 349 350 349 346 341 338 336 335 333 330 321 318 314 310 304 302 301 305 309 307 304 303 306 309 306 305 304 305 306 309 310
344 347 348 349 351 349 348 347 345 344 343 340 337 338 339 339 335 330 329 329 326 326 323 320 317 311 306 306 302 302 306 306 304 305 305 308 306 304 303 303 306 308 307
Height
5891 5889 5889 5888 5887 5886 5885 5884 5882 5880 5880 5881 5884 5886 5888 5890 5891 5892 5893 5893 5894 5894 5894 5894 5893 5894 5894 5894 5894 5894 5893 5893 5893 5893 5893 5893 5892 5892 5891 5891 5890 5890 5890
5891 5890 5889 5888 5887 5886 5885 5885 5884 5882 5882 5883 5885 5887 5889 5891 5892 5893 5893 5894 5894 5894 5894 5894 5894 5894 5894 5894 5894 5894 5893 5893 5893 5893 5893 5893 5892 5892 5891 5891 5890 5890 5890
5891 5891 5890 5889 5888 5887 5886 5886 5886 5885 5885 5886 5888 5889 5890 5891 5892 5893 5893 5894 5894 5894 5894 5894 5894 5894 5894 5894 5894 5894 5894 5893 5893 5893 5893 5892 5892 5892 5891 5891 5890 5890 5890
5892 5891 5891 5890 5889 5888 5888 5888 5888 5888 5888 5889 5890 5891 5891 5892 5893 5893 5894 5894 5894 5894 5894 5894 5894 5894 5894 5894 5894 5894 5893 5893 5893 5893 5892 5892 5892 5891 5891 5890 5890 5890 5890
5893 5892 5891 5891 5890 5890 5889 5889 5889 5889 5890 5890 5891 5891 5892 5893 5893 5893 5894 5894 5894 5894 5894 5894 5894 5894 5894 5894 5893 5893 5893 5893 5893 5893 5892 5892 5891 5891 5891 5890 5890 5890 5889
5893 5893 5892 5892 5891 5891 5890 5890 5890 5890 5891 5891 5892 5892 5893 5893 5893 5893 5894 5894 5894 5894 5895 5894 5894 5894 5894 5893 5893 5893 5893 5893 5893 5892 5892 5891 5891 5890 5890 5890 5890 5889 5889
5894 5894 5893 5893 5892 5892 5891 5891 5891 5891 5892 5892 5893 5893 5893 5893 5894 5894 5894 5894 5894 5894 5894 5894 5894 5894 5893 5893 5893 5893 5893 5893 5892 5892 5892 5891 5891 5890 5890 5889 5889 5889 5888
5895 5894 5894 5894 5893 5892 5892 5892 5892 5892 5892 5893 5893 5893 5894 5894 5894 5894 5894 5894 5894 5894 5894 5894 5894 5893 5893 5892 5893 5893 5893 5892 5892 5892 5892 5891 5891 5890 5890 5889 5889 5888 5888
5896 5895 5895 5894 5894 5894 5893 5893 5893 5893 5893 5894 5894 5894 5894 5894 5894 5894 5894 5894 5894 5894 5894 5894 5893 5893 5893 5892 5892 5892 5892 5892 5892 5891 5891 5891 5890 5890 5889 5889 5888 5888 5887
5897 5896 5896 5895 5895 5894 5894 5894 5893 5894 5894 5894 5894 5894 5894 5894 5894 5894 5894 5894 5894 5894 5894 5893 5893 5893 5892 5892 5891 5891 5891 5891 5891 5891 5890 5890 5890 5889 5889 5888 5887 5887 5886
5898 5897 5896 5896 5895 5895 5895 5894 5894 5894 5894 5894 5895 5895 5895 5895 5895 5894 5894 5894 5894 5893 5893 5893 5893 5892 5892 5891 5891 5890 5890 5890 5890 5890 5890 5889 5889 5888 5888 5887 5886 5886 5885
5899 5898 5897 5896 5896 5896 5895 5895 5895 5895 5895 5895 5895 5895 5895 5895 5895 5895 5894 5894 5894 5894 5893 5893 5892 5892 5891 5890 5890 5890 5889 5889 5889 5889 5888 5888 5888 5887 5886 5886 5885 5884 5883
5900 5899 5898 5897 5897 5896 5896 5896 5896 5896 5896 5896 5896 5896 5895 5895 5895 5895 5894 5894 5894 5893 5893 5892 5892 5891 5890 5890 5889 5889 5889 5888 5888 5888 5887 5887 5886 5886 5885 5884 5883 5883 5882
5902 5901 5899 5899 5898 5897 5897 5897 5897 5897 5897 5897 5896 5896 5896 5896 5895 5895 5894 5894 5893 5893 5892 5892 5891 5890 5890 5889 5889 5888 5888 5888 5887 5886 5886 5886 5885 5884 5883 5882 5882 5881 5880
5904 5902 5901 5900 5898 5898 5898 5898 5899 5898 5898 5897 5897 5897 5896 5896 5896 5895 5894 5894 5893 5892 5892 5891 5890 5890 5889 5889 5888 5888 5887 5887 5886 5885 5885 5884 5884 5883 5882 5881 5880 5879 5878
5905 5904 5903 5901 5900 5899 5900 5900 5900 5899 5899 5899 5898 5897 5897 5896 5896 5895 5894 5893 5893 5892 5891 5891 5890 5889 5889 5888 5888 5887 5886 5885 5885 5884 5883 5883 5882 5881 5880 5879 5878 5877 5876
5907 5906 5904 5903 5902 5902 5902 5901 5901 5901 5900 5899 5899 5898 5897 5896 5896 5895 5894 5893 5893 5892 5891 5890 5890 5889 5888 5888 5887 5886 5885 5884 5884 5883 5882 5881 5880 5879 5878 5877 5876 5875 5874
5908 5907 5906 5905 5904 5904 5903 5903 5902 5902 5901 5900 5899 5898 5897 5896 5896 5895 5894 5893 5892 5892 5891 5890 5889 5888 5887 5887 5886 5885 5884 5883 5882 5881 5880 5879 5878 5877 5876 5875 5874 5873 5872
5910 5908 5907 5906 5906 5905 5904 5904 5903 5902 5901 5900 5899 5899 5898 5897 5896 5895 5894 5893 5892 5891 5890 5889 5888 5887 5887 5886 5885 5884 5883 5882 5881 5880 5878 5877 5876 5875 5874 5873 5872 5871 5870
5911 5910 5908 5908 5907 5906 5905 5904 5903 5903 5902 5900 5900 5899 5897 5896 5895 5894 5893 5892 5891 5890 5889 5888 5887 5887 5886 5885 5884 5883 5882 5881 5879 5878 5876 5875 5874 5873 5872 5871 5869 5868 5867
5912 5910 5910 5908 5908 5907 5906 5905 5904 5903 5902 5901 5900 5899 5898 5896 5895 5894 5893 5892 5891 5889 5888 5887 5886 5886 5885 5884 5883 5882 5881 5879 5878 5876 5875 5874 5873 5871 5870 5869 5867 5866 5864
5912 5911 5910 5909 5908 5907 5906 5905 5904 5903 5902 5901 5900 5898 5897 5896 5895 5894 5892 5891 5890 5889 5887 5886 5885 5884 5883 5882 5881 5880 5879 5879 5877 5875 5874 5872 5871 5869 5868 5866 5864 5863 5862
5912 5911 5910 5909 5908 5907 5906 5905 5904 5903 5902 5901 5899 5898 5897 5895 5894 5893 5891 5890 5889 5887 5886 5885 5884 5883 5882 5880 5879 5878 5877 5876 5875 5874 5872 5871 5869 5867 5865 5864 5862 5861 5859
5912 5911 5910 5909 5908 5907 5906 5905 5904 5903 5902 5901 5899 5898 5896 5895 5893 5892 5890 5889 5887 5886 5884 5883 5882 5881 5880 5878 5877 5876 5875 5873 5872 5871 5869 5868 5866 5865 5863 5862 5860 5858 5857
5912 5911 5910 5908 5907 5906 5905 5904 5903 5902 5901 5900 5898 5897 5895 5893 5892 5890 5889 5887 5885 5884 5882 5881 5879 5878 5877 5876 5874 5873 5872 5871 5869 5868 5867 5865 5863 5862 5861 5859 5857 5856 5854
5911 5910 5909 5908 5906 5906 5905 5904 5903 5901 5900 5899 5897 5895 5894 5892 5890 5888 5887 5885 5883 5882 5880 5879 5877 5875 5874 5873 5872 5870 5869 5868 5866 5865 5864 5863 5861 5859 5858 5856 5855 5853 5851